[[{"header":{"parameterUnit":"m.s-1","parameterCategory":1,"la1":30.2991,"la2":30.254,"lo1":-89.0895,"lo2":-89.0444,"dx":0.0017,"dy":0.0017,"nx":28,"ny":28,"refTime":"2022-11-17T15:00:00:Z","depth":0,"parameterNumber":2,"parameterNumberName":"U-component_of_WINDS"},"data":[0,0,0,0,0,0,0,0,0,0,0,0,0,0,0,0,0,0,0,0,0,0,0,0,0,0,0,0,0,0,0,0,0,0,0,0,0,0,0,0,0,0,0,0,0,0,0,0,0,0,0,0,0,0,0,0,0,0,-3.2312,-3.2313,0,-3.2412,-3.2413,-3.2414,-3.2301,-3.2297,-3.2292,-3.2288,-3.2392,-3.2398,-3.2405,0,0,0,0,0,0,0,0,0,0,0,0,0,-3.202,-3.2026,-3.2312,-3.2313,-3.2314,-3.2412,-3.2413,-3.2415,-3.2302,-3.2296,-3.2291,-3.2286,-3.239,-3.2397,-3.2406,0,0,0,0,0,0,0,0,0,0,0,0,0,-3.2136,-3.2028,-3.2311,-3.2269,-3.2267,-3.2412,-3.2413,-3.2415,-3.2303,-3.2296,-3.229,-3.2284,-3.2387,-3.2397,-3.2407,-3.2598,0,0,-3.2438,-3.2442,0,0,0,0,0,0,0,0,-3.213,-3.2147,-3.2274,-3.2273,-3.227,-3.2337,-3.2348,-3.2476,-3.2304,-3.2289,-3.2288,-3.2281,-3.2379,-3.2389,-3.2422,-3.2603,-3.2607,-3.2439,-3.2445,-3.2449,-3.2452,0,0,0,0,0,0,0,-3.2122,-3.2142,-3.2351,-3.2276,-3.2274,-3.2245,-3.2254,-3.2372,-3.2369,-3.229,-3.2282,-3.2295,-3.2376,-3.2413,-3.2424,-3.2609,-3.2438,-3.2447,-3.2453,-3.2457,-3.2949,-3.2955,0,0,0,0,0,0,-3.2119,-3.2136,-3.2348,-3.2354,-3.2182,-3.2256,-3.2266,-3.2322,-3.2367,-3.2368,-3.2301,-3.229,-3.2399,-3.2412,-3.2427,-3.2653,-3.2449,-3.2458,-3.2464,-3.2942,-3.295,-3.2958,0,0,0,0,0,0,-3.2113,-3.2139,-3.2344,-3.2243,-3.2267,-3.2267,-3.2331,-3.2328,-3.2364,-3.2375,-3.2374,-3.2339,-3.2394,-3.2413,-3.2556,-3.2655,-3.2463,-3.2472,-3.2934,-3.2944,-3.2954,-3.3107,0,0,0,0,0,0,-3.2105,-3.2137,-3.2211,-3.2246,-3.2273,-3.2472,-3.2338,-3.2334,-3.2382,-3.2368,-3.2411,-3.2412,-3.239,-3.2541,-3.2566,-3.2665,-3.248,-3.2925,-3.2938,-3.2951,-3.3093,-3.3121,-3.3145,0,0,0,0,0,-3.2095,-3.225,-3.2215,-3.2241,-3.2365,-3.2478,-3.2494,-3.2466,-3.239,-3.2463,-3.247,-3.241,-3.264,-3.2557,-3.2584,-3.2688,-3.2918,-3.2935,-3.295,-3.3081,-3.3116,-3.3145,0,0,0,0,0,0,-3.2228,-3.2254,-3.2215,-3.2387,-3.2431,-3.2459,-3.2551,-3.2504,-3.2571,-3.2556,-3.2518,-3.2529,-3.2681,-3.2698,-3.2605,-3.2874,-3.2766,-3.2788,-3.2857,-3.289,-3.2916,-3.2909,-3.2489,0,0,0,0,0,-3.2277,-3.2367,-3.2385,-3.2534,-3.2558,-3.2551,-3.2599,-3.2574,-3.2619,-3.2637,-3.2654,-3.27,-3.2781,-3.2837,-3.2913,-3.3094,-3.3101,-3.3179,-3.3205,-3.3226,-3.3246,-3.3341,-3.3376,-3.3009,-3.3009,-3.3009,0,0,-3.2379,-3.2405,-3.2464,-3.2561,-3.2593,-3.2686,-3.2568,-3.2672,-3.2741,-3.2653,-3.2789,-3.2803,-3.2851,-3.3014,-3.3086,-3.3033,-3.3348,-3.3246,-3.3263,-3.3271,-3.3361,-3.3396,-3.3426,-3.302,-3.3018,-3.3016,0,0,-3.2614,-3.2643,-3.2769,-3.2803,-3.2851,-3.2845,-3.2875,-3.291,-3.2916,-3.3052,-3.2987,-3.3068,-3.321,-3.3246,-3.3284,-3.3529,-3.3476,-3.3555,-3.3693,-3.3786,-3.3815,-3.384,-3.3927,-3.3959,-3.3574,-3.3575,-3.3575,0,-3.2735,-3.2874,-3.2841,-3.295,-3.2994,-3.2917,-3.3044,-3.3078,-3.315,-3.3182,-3.312,-3.3296,-3.3323,-3.3492,-3.3552,-3.3585,-3.3618,-3.3551,-3.3813,-3.3839,-3.3862,-3.3944,-3.3977,-3.3584,-3.3583,-3.3582,-3.3581,0,-3.3021,-3.3118,-3.3214,-3.3284,-3.3339,-3.3457,-3.344,-3.3499,-3.3469,-3.3468,-3.3606,-3.3636,-3.3716,-3.3754,-3.3725,-3.3919,-3.3884,-3.3819,-3.3711,-3.3907,-3.3983,-3.4015,-3.3597,-3.3594,-3.3591,-3.3589,0,0,-3.3344,-3.3392,-3.3428,-3.3458,-3.3505,-3.3579,-3.3692,-3.377,-3.3821,-3.3872,-3.3966,-3.4087,-3.4026,-3.4068,-3.4043,-3.4125,-3.4316,-3.4049,-3.405,-3.4098,-3.453,-3.4578,-3.4616,-3.4281,-3.4287,-3.4291,-3.4525,0,-3.3578,-3.3775,-3.3747,-3.3936,-3.4025,-3.3952,-3.405,-3.4089,-3.4092,-3.4166,-3.4168,-3.4254,-3.4168,-3.4193,-3.4271,-3.4277,-3.4403,-3.4259,-3.4367,-3.4371,-3.4357,-3.4656,-3.4708,-3.4928,-3.4555,-3.456,-3.4564,0,-3.388,-3.3941,-3.4139,-3.417,-3.4206,-3.4295,-3.4363,-3.4435,-3.4477,-3.4473,-3.4519,-3.4478,-3.459,-3.4479,-3.4632,-3.4535,-3.4577,-3.4586,-3.4594,-3.4603,-3.448,-3.4673,-3.4997,-3.503,-3.4611,-3.4607,-3.4604,0,-3.4095,-3.4226,-3.4361,-3.4389,-3.4429,-3.4493,-3.4513,-3.4548,-3.4596,-3.4655,-3.4685,-3.4757,-3.4796,-3.4852,-3.4831,-3.4752,-3.4988,-3.4875,-3.4987,-3.4988,-3.504,-3.5038,-3.5376,-3.5068,-3.5067,-3.5067,-3.5066,0,-3.436,-3.4484,-3.4458,-3.4541,-3.4677,-3.4643,-3.4778,-3.4788,-3.482,-3.4903,-3.4844,-3.4923,-3.489,-3.4967,-3.4951,-3.508,-3.5098,-3.5097,-3.5091,-3.5103,-3.5103,-3.513,-3.5114,-3.5076,-3.5074,-3.5072,-3.507,0,-3.4624,-3.4612,-3.4754,-3.4779,-3.4788,-3.4887,-3.4909,-3.4986,-3.4982,-3.5088,-3.5111,-3.5106,-3.5193,-3.5177,-3.5273,-3.5262,-3.5423,-3.5398,-3.5409,-3.5403,-3.5515,-3.5505,-3.5883,-3.593,-3.5592,-3.5595,-3.5598,0,-3.4794,-3.4888,-3.4923,-3.4974,-3.4998,-3.5081,-3.5129,-3.5098,-3.5151,-3.5204,-3.5275,-3.5356,-3.542,-3.5562,-3.5566,-3.5639,-3.5615,-3.5743,-3.5626,-3.5634,-3.5616,-3.5611,-3.562,-3.5766,-3.577,-3.5773,-3.5776,0,-3.5098,-3.5086,-3.5158,-3.5227,-3.5286,-3.5339,-3.5387,-3.5432,-3.5405,-3.5466,-3.5554,-3.5603,-3.57,-3.5782,-3.5849,-3.5867,-3.5818,-3.5812,-3.5842,-3.5854,-3.5856,-3.5856,-3.5472,-3.5804,-3.5801,-3.5799,-3.5798,-3.5796,-3.5319,-3.5398,-3.5435,-3.5516,-3.5548,-3.5593,-3.5666,-3.5671,-3.5744,-3.5821,-3.5798,-3.5897,-3.5934,-3.6019,-3.6046,-3.6122,-3.6075,-3.6118,-3.6129,-3.614,-3.6153,-3.5844,-3.6134,-3.6134,-3.6133,-3.6132,-3.6131,0,-3.5619,-3.5638,-3.5713,-3.5781,-3.5844,-3.5791,-3.5839,-3.5896,-3.5984,-3.6023,-3.6086,-3.6186,-3.6264,-3.6274,-3.6347,-3.6406,-3.6385,-3.6427,-3.6422,-3.6427,-3.6192,-3.6158,-3.6443,-3.6443,-3.6443,-3.6442,-3.6442,-3.6442,-3.5783,-3.5913,-3.5905,-3.605,-3.6068,-3.6165,-3.6197,-3.6238,-3.6268,-3.6383,-3.6447,-3.6452,-3.6479,-3.6553,-3.6622,-3.6622,-3.6652,-3.6702,-3.6694,-3.6475,-3.6444,-3.6414,-3.6383,-3.6709,-3.671,-3.6923,-3.6925,-3.6926]},{"header":{"parameterUnit":"m.s-1","parameterCategory":1,"la1":30.2991,"la2":30.254,"lo1":-89.0895,"lo2":-89.0444,"dx":0.0017,"dy":0.0017,"nx":28,"ny":28,"refTime":"2022-11-17T15:00:00:Z","depth":0,"parameterNumber":3,"parameterNumberName":"V-component_of_WINDS"},"data":[0,0,0,0,0,0,0,0,0,0,0,0,0,0,0,0,0,0,0,0,0,0,0,0,0,0,0,0,0,0,0,0,0,0,0,0,0,0,0,0,0,0,0,0,0,0,0,0,0,0,0,0,0,0,0,0,0,0,-5.3885,-5.3886,0,-5.3964,-5.3965,-5.3965,-5.3871,-5.3868,-5.3864,-5.3861,-5.3937,-5.3943,-5.3948,0,0,0,0,0,0,0,0,0,0,0,0,0,-5.3648,-5.3653,-5.3885,-5.3886,-5.3887,-5.3964,-5.3965,-5.3966,-5.3872,-5.3867,-5.3863,-5.3859,-5.3936,-5.3942,-5.3948,0,0,0,0,0,0,0,0,0,0,0,0,0,-5.3742,-5.3655,-5.3885,-5.385,-5.3847,-5.3963,-5.3965,-5.3966,-5.3873,-5.3867,-5.3862,-5.3857,-5.3934,-5.3941,-5.3949,-5.4103,0,0,-5.3973,-5.3977,0,0,0,0,0,0,0,0,-5.3736,-5.375,-5.3854,-5.3852,-5.385,-5.3902,-5.3909,-5.4012,-5.3874,-5.3863,-5.3861,-5.3855,-5.393,-5.3938,-5.3964,-5.4106,-5.411,-5.3974,-5.3979,-5.3982,-5.3985,0,0,0,0,0,0,0,-5.373,-5.3746,-5.3916,-5.3855,-5.3853,-5.3828,-5.3835,-5.3928,-5.3924,-5.3863,-5.3857,-5.3868,-5.3928,-5.3956,-5.3965,-5.4111,-5.3974,-5.3981,-5.3986,-5.3989,-5.438,-5.4385,0,0,0,0,0,0,-5.3728,-5.3742,-5.3914,-5.3918,-5.3779,-5.3836,-5.3845,-5.3891,-5.3923,-5.3923,-5.3872,-5.3863,-5.3945,-5.3956,-5.3967,-5.4147,-5.3982,-5.399,-5.3994,-5.4374,-5.4381,-5.4387,0,0,0,0,0,0,-5.3724,-5.3745,-5.391,-5.3828,-5.3847,-5.3846,-5.3898,-5.3895,-5.3924,-5.393,-5.3928,-5.3902,-5.3942,-5.3956,-5.4069,-5.4148,-5.3993,-5.4,-5.4368,-5.4376,-5.4384,-5.451,0,0,0,0,0,0,-5.3717,-5.3744,-5.3803,-5.383,-5.3852,-5.4013,-5.3903,-5.39,-5.3938,-5.3927,-5.3958,-5.3958,-5.3939,-5.4058,-5.4077,-5.4157,-5.4007,-5.4361,-5.4372,-5.4382,-5.4498,-5.4521,-5.4541,0,0,0,0,0,-5.3709,-5.3835,-5.3807,-5.3828,-5.3927,-5.4018,-5.403,-5.4007,-5.3945,-5.4004,-5.4007,-5.3957,-5.4137,-5.407,-5.4091,-5.4174,-5.4355,-5.4368,-5.4381,-5.4489,-5.4517,-5.454,0,0,0,0,0,0,-5.3817,-5.3838,-5.3807,-5.3946,-5.3981,-5.4002,-5.4076,-5.4038,-5.409,-5.4077,-5.4044,-5.4052,-5.4172,-5.4184,-5.411,-5.4323,-5.4236,-5.4253,-5.4311,-5.4337,-5.4358,-5.4352,-5.4013,0,0,0,0,0,-5.3857,-5.3931,-5.3945,-5.4066,-5.4085,-5.4078,-5.4117,-5.4095,-5.413,-5.4144,-5.4155,-5.419,-5.4253,-5.4296,-5.4355,-5.45,-5.4504,-5.4567,-5.4588,-5.4606,-5.4621,-5.4695,-5.4723,-5.4429,-5.4429,-5.4429,0,0,-5.394,-5.3961,-5.4009,-5.4088,-5.4113,-5.4187,-5.4091,-5.4175,-5.4229,-5.4156,-5.4263,-5.4273,-5.4309,-5.4438,-5.4495,-5.4452,-5.4703,-5.4622,-5.4636,-5.4641,-5.4711,-5.4739,-5.4764,-5.4437,-5.4436,-5.4435,0,0,-5.413,-5.4154,-5.4257,-5.4283,-5.4322,-5.4316,-5.4341,-5.4367,-5.4371,-5.4479,-5.4424,-5.4488,-5.46,-5.4626,-5.4655,-5.4853,-5.4807,-5.4873,-5.4983,-5.5057,-5.508,-5.51,-5.5169,-5.5194,-5.4888,-5.4888,-5.4888,0,-5.4228,-5.4341,-5.4314,-5.4402,-5.4436,-5.4374,-5.4476,-5.4503,-5.4558,-5.4583,-5.4534,-5.4671,-5.4691,-5.4824,-5.4872,-5.4898,-5.4923,-5.4869,-5.5079,-5.5099,-5.5117,-5.5182,-5.5208,-5.4896,-5.4895,-5.4894,-5.4893,0,-5.4458,-5.4537,-5.4615,-5.4671,-5.4714,-5.4809,-5.4794,-5.4842,-5.4816,-5.4815,-5.4923,-5.4945,-5.5006,-5.5036,-5.5012,-5.5166,-5.5137,-5.5084,-5.4995,-5.5153,-5.5214,-5.5239,-5.4907,-5.4904,-5.4902,-5.49,0,0,-5.4719,-5.4758,-5.4787,-5.481,-5.4847,-5.4907,-5.4997,-5.5058,-5.5098,-5.5138,-5.5211,-5.5306,-5.5257,-5.5289,-5.5267,-5.5331,-5.5484,-5.527,-5.527,-5.5307,-5.5651,-5.569,-5.572,-5.5454,-5.5459,-5.5463,-5.5648,0,-5.4907,-5.5065,-5.5043,-5.5194,-5.5265,-5.5205,-5.5284,-5.5314,-5.5315,-5.5373,-5.5373,-5.544,-5.5371,-5.5389,-5.5451,-5.5453,-5.5552,-5.5439,-5.552,-5.5523,-5.5512,-5.5752,-5.5793,-5.5967,-5.5671,-5.5675,-5.5678,0,-5.5149,-5.5198,-5.5356,-5.538,-5.5409,-5.548,-5.5533,-5.559,-5.5622,-5.5618,-5.5653,-5.5619,-5.5707,-5.5618,-5.5737,-5.566,-5.5692,-5.5698,-5.5704,-5.5709,-5.561,-5.5762,-5.6022,-5.6048,-5.5716,-5.5713,-5.571,0,-5.532,-5.5426,-5.5534,-5.5556,-5.5587,-5.5638,-5.5653,-5.568,-5.5718,-5.5763,-5.5786,-5.5842,-5.5871,-5.5914,-5.5894,-5.5832,-5.6017,-5.5926,-5.6014,-5.6014,-5.6054,-5.6052,-5.6322,-5.6078,-5.6077,-5.6077,-5.6076,0,-5.5532,-5.5631,-5.5611,-5.5677,-5.5785,-5.5758,-5.5864,-5.5872,-5.5896,-5.5961,-5.5913,-5.5975,-5.5946,-5.6005,-5.5991,-5.609,-5.6104,-5.6102,-5.6096,-5.6106,-5.6106,-5.6125,-5.6112,-5.6084,-5.6082,-5.6081,-5.608,0,-5.5742,-5.5733,-5.5846,-5.5866,-5.5874,-5.5952,-5.5968,-5.6029,-5.6026,-5.6108,-5.6126,-5.612,-5.6187,-5.6172,-5.6245,-5.6235,-5.636,-5.634,-5.635,-5.6344,-5.6432,-5.6423,-5.6722,-5.6759,-5.6493,-5.6496,-5.6498,0,-5.5878,-5.5952,-5.598,-5.6021,-5.604,-5.6106,-5.6143,-5.6118,-5.6159,-5.62,-5.6256,-5.6318,-5.6367,-5.6476,-5.6477,-5.6532,-5.6513,-5.6613,-5.652,-5.6526,-5.6512,-5.6507,-5.6513,-5.6632,-5.6635,-5.6637,-5.6639,0,-5.6118,-5.6109,-5.6166,-5.6222,-5.6268,-5.631,-5.6347,-5.6383,-5.636,-5.6408,-5.6476,-5.6514,-5.6588,-5.665,-5.6701,-5.6714,-5.6673,-5.6669,-5.6691,-5.6701,-5.6702,-5.6701,-5.6398,-5.6662,-5.6659,-5.6658,-5.6657,-5.6656,-5.6293,-5.6356,-5.6385,-5.6449,-5.6475,-5.651,-5.6568,-5.6571,-5.6628,-5.6687,-5.6669,-5.6746,-5.6773,-5.6837,-5.6856,-5.6915,-5.6876,-5.691,-5.6918,-5.6926,-5.6936,-5.6694,-5.6924,-5.6923,-5.6923,-5.6922,-5.6922,0,-5.653,-5.6545,-5.6605,-5.6658,-5.6708,-5.6666,-5.6704,-5.6748,-5.6817,-5.6847,-5.6896,-5.6973,-5.7032,-5.7038,-5.7093,-5.7139,-5.7121,-5.7154,-5.715,-5.7153,-5.6968,-5.6942,-5.7167,-5.7167,-5.7167,-5.7167,-5.7167,-5.7167,-5.6658,-5.6761,-5.6756,-5.687,-5.6884,-5.696,-5.6985,-5.7017,-5.704,-5.7129,-5.7178,-5.7182,-5.7201,-5.7257,-5.7309,-5.7309,-5.7331,-5.7371,-5.7364,-5.7191,-5.7166,-5.7143,-5.7118,-5.7376,-5.7377,-5.7543,-5.7544,-5.7546]}]]